Location: Góry Miechowskie
(50.3599°N, 20.1803°E)
Time: 13:12:55
(UTC+00:00)

Cosmos 1892 Rocket - Pass Details

Date: 15 June 2024
Orbit: 603 x 629 km, 82.5° (Epoch: 15 July)

Event Time Altitude Azimuth Distance (km) Brightness Sun altitude
Exits shadow 01:37:12 - 186° (S) 2,584 6.2 -6.6°
Reaches altitude 10° 01:38:41 10° 185° (S) 1,979 5.7 -6.4°
Maximum altitude 01:43:04 82° 100° (E) 635 3.7 -5.9°
Drops below altitude 10° 01:47:32 10° 12° (NNE) 2,011 7.3 -5.5°
Sets 01:49:47 0° 11° (NNE) 2,926 8.2 -5.2°
